Midland, MI

10:32 PM EDT on June 27, 2017 (GMT -0400)
Barstow

Weather History for KIKW - January, 2014

Change the Weather History Date:

Wednesday, January 1, 2014

  Actual Average (KMBS) Record (KMBS)
Temperature  
Mean Temperature 5 °F -  
Max Temperature 14 °F 30 °F 52 °F (2011)
Min Temperature -4 °F 17 °F 1 °F (2001)
Degree Days  
Heating Degree Days 60    
Moisture  
Dew Point 0 °F    
Average Humidity 71    
Maximum Humidity 86    
Minimum Humidity 51    
Precipitation  
Precipitation 0.00 in - - ()
Sea Level Pressure  
Sea Level Pressure 30.35 in    
Wind  
Wind Speed 3 mph (NNE)    
Max Wind Speed 8 mph    
Max Gust Speed -    
Visibility 10 miles    
Events Snow    
Averages and records for this station are not official NWS values.
T = Trace of Precipitation, MM = Missing Value Source: NWS Daily Summary

Daily Weather History Graph

Daily Weather History Graph

Search for Another Location

Airport or City:

Trip Planner

Search our weather history database for the weather conditions in past years. The results will help you decide how hot, cold, wet, or windy it might be!

Date:

Astronomy

Jan. 01, 2014 Rise Set
Actual Time 8:10 AM EST 5:10 PM EST
Civil Twilight 7:37 AM EST 5:43 PM EST
Nautical Twilight 7:01 AM EST 6:19 PM EST
Astronomical Twilight 6:26 AM EST 6:54 PM EST
Moon 7:58 AM EST (1/1) 5:57 PM EST (1/1)
Length of Visible Light 10h 05m
Length of Day
9h 00m
New Moon, 0% of the Moon is Illuminated
Jan 1
New Moon
Jan 7
First Quarter
Jan 15
Full
Jan 24
Last Quarter
Jan 30
New

Hourly Weather History & Observations

Time (EST) Temp. Windchill Dew Point Humidity Pressure Visibility Wind Dir Wind Speed Gust Speed Precip Events Conditions
12:12 AM 10.8 °F 4.5 °F 3.0 °F 71% 30.32 in 10.0 mi NW 3.5 mph - N/A   Overcast
12:33 AM 10.4 °F 0.8 °F 2.3 °F 70% 30.32 in 10.0 mi NW 5.8 mph - N/A   Overcast
12:52 AM 10.2 °F 2.0 °F 1.2 °F 67% 30.32 in 10.0 mi NW 4.6 mph - N/A   Overcast
1:12 AM 9.5 °F - -0.0 °F 65% 30.33 in 10.0 mi Calm Calm - N/A   Mostly Cloudy
1:33 AM 8.2 °F - -0.4 °F 68% 30.32 in 10.0 mi Calm Calm - N/A   Scattered Clouds
1:52 AM 6.4 °F - -2.2 °F 68% 30.33 in 10.0 mi Calm Calm - N/A   Clear
2:12 AM 5.0 °F - -0.9 °F 76% 30.33 in 10.0 mi Calm Calm - N/A   Clear
2:32 AM 2.8 °F - -1.8 °F 81% 30.33 in 10.0 mi Calm Calm - N/A   Clear
2:52 AM 1.4 °F - -2.2 °F 85% 30.33 in 10.0 mi Calm Calm - N/A   Clear
3:12 AM 0.7 °F - -2.7 °F 86% 30.33 in 10.0 mi Calm Calm - N/A   Clear
3:32 AM -0.4 °F - -4.0 °F 85% 30.33 in 10.0 mi Calm Calm - N/A   Clear
3:52 AM -1.3 °F - -5.1 °F 84% 30.33 in 10.0 mi Calm Calm - N/A   Clear
4:12 AM -2.2 °F - -5.8 °F 85% 30.32 in 10.0 mi Calm Calm - N/A   Clear
4:33 AM -2.6 °F - -5.8 °F 86% 30.32 in 10.0 mi Calm Calm - N/A   Clear
4:52 AM -3.5 °F - -6.9 °F 85% 30.33 in 10.0 mi Calm Calm - N/A   Clear
5:12 AM -4.2 °F - -8.0 °F 84% 30.33 in 10.0 mi Calm Calm - N/A   Clear
5:33 AM -3.8 °F - -7.6 °F 84% 30.34 in 10.0 mi Calm Calm - N/A   Scattered Clouds
5:52 AM -3.3 °F - -7.2 °F 83% 30.35 in 10.0 mi Calm Calm - N/A   Scattered Clouds
6:12 AM -3.1 °F - -6.9 °F 84% 30.35 in 10.0 mi Calm Calm - N/A   Mostly Cloudy
6:32 AM -1.7 °F - -5.8 °F 83% 30.35 in 10.0 mi Calm Calm - N/A   Overcast
6:52 AM -0.8 °F - -4.9 °F 83% 30.36 in 10.0 mi Calm Calm - N/A   Overcast
7:12 AM -0.0 °F - -4.0 °F 83% 30.37 in 10.0 mi Calm Calm - N/A   Scattered Clouds
7:32 AM 0.5 °F - -3.8 °F 82% 30.37 in 10.0 mi Calm Calm - N/A   Mostly Cloudy
7:52 AM 0.9 °F - -3.3 °F 83% 30.38 in 10.0 mi Calm Calm - N/A   Scattered Clouds
8:12 AM 1.2 °F - -3.3 °F 81% 30.37 in 10.0 mi Calm Calm - N/A   Scattered Clouds
8:32 AM 1.4 °F - -2.7 °F 83% 30.38 in 10.0 mi Calm Calm - N/A   Scattered Clouds
8:52 AM 2.1 °F - -2.2 °F 82% 30.38 in 10.0 mi Calm Calm - N/A   Clear
9:12 AM 3.2 °F - -1.3 °F 82% 30.39 in 10.0 mi Calm Calm - N/A   Clear
9:32 AM 4.3 °F - -0.8 °F 80% 30.40 in 10.0 mi Calm Calm - N/A   Clear
9:52 AM 5.5 °F - -0.0 °F 78% 30.40 in 10.0 mi Calm Calm - N/A   Scattered Clouds
10:12 AM 7.2 °F - 1.0 °F 76% 30.41 in 10.0 mi Calm Calm - N/A   Mostly Cloudy
10:32 AM 9.5 °F 3.0 °F 1.9 °F 71% 30.42 in 10.0 mi ENE 3.5 mph - N/A   Overcast
10:52 AM 10.9 °F 2.9 °F 1.0 °F 64% 30.42 in 10.0 mi ENE 4.6 mph - N/A   Mostly Cloudy
11:12 AM 11.1 °F 3.1 °F 0.9 °F 63% 30.42 in 10.0 mi ENE 4.6 mph - N/A   Mostly Cloudy
11:32 AM 11.3 °F 5.1 °F 0.7 °F 62% 30.42 in 10.0 mi NNE 3.5 mph - N/A   Mostly Cloudy
11:52 AM 11.8 °F 3.9 °F 0.7 °F 61% 30.40 in 10.0 mi East 4.6 mph - N/A   Mostly Cloudy
12:12 PM 12.0 °F 2.7 °F 0.7 °F 60% 30.39 in 10.0 mi East 5.8 mph - N/A   Mostly Cloudy
12:32 PM 12.2 °F 1.7 °F 0.5 °F 60% 30.38 in 10.0 mi ENE 6.9 mph - N/A   Overcast
12:52 PM 12.4 °F 6.3 °F 0.5 °F 59% 30.37 in 10.0 mi NE 3.5 mph - N/A   Mostly Cloudy
1:12 PM 12.9 °F 2.6 °F -0.4 °F 55% 30.37 in 10.0 mi NE 6.9 mph - N/A   Scattered Clouds
1:32 PM 12.7 °F 2.4 °F 0.3 °F 58% 30.36 in 10.0 mi ENE 6.9 mph - N/A   Scattered Clouds
1:52 PM 12.7 °F 2.4 °F -0.2 °F 56% 30.35 in 10.0 mi NNE 6.9 mph - N/A   Clear
2:12 PM 13.1 °F 5.4 °F -0.6 °F 54% 30.34 in 10.0 mi NE 4.6 mph - N/A   Scattered Clouds
2:32 PM 13.1 °F 1.8 °F -0.4 °F 55% 30.34 in 10.0 mi NE 8.1 mph - N/A   Scattered Clouds
2:52 PM 13.5 °F 7.5 °F -0.2 °F 55% 30.34 in 10.0 mi NNE 3.5 mph - N/A   Scattered Clouds
3:12 PM 13.8 °F 6.2 °F -0.8 °F 52% 30.34 in 10.0 mi NE 4.6 mph - N/A   Mostly Cloudy
3:32 PM 14.0 °F 6.5 °F -0.6 °F 52% 30.33 in 10.0 mi ENE 4.6 mph - N/A   Overcast
3:52 PM 14.2 °F 8.4 °F -0.0 °F 53% 30.33 in 10.0 mi NE 3.5 mph - N/A   Overcast
4:12 PM 14.4 °F 6.9 °F -0.0 °F 53% 30.33 in 10.0 mi NE 4.6 mph - N/A   Overcast
4:32 PM 14.4 °F 8.6 °F -0.6 °F 52% 30.34 in 10.0 mi NNE 3.5 mph - N/A   Overcast
4:52 PM 14.2 °F 8.4 °F -0.2 °F 53% 30.33 in 10.0 mi NE 3.5 mph - N/A   Overcast
5:12 PM 14.0 °F 6.5 °F -1.1 °F 51% 30.33 in 10.0 mi NNE 4.6 mph - N/A   Overcast
5:32 PM 13.8 °F 6.2 °F -0.8 °F 52% 30.33 in 10.0 mi NNE 4.6 mph - N/A   Overcast
5:52 PM 13.6 °F 6.0 °F -0.0 °F 55% 30.33 in 10.0 mi NNE 4.6 mph - N/A   Overcast
6:12 PM 13.5 °F 5.8 °F 2.1 °F 61% 30.33 in 10.0 mi NNE 4.6 mph - N/A   Overcast
6:32 PM 13.3 °F 4.2 °F 3.9 °F 66% 30.33 in 10.0 mi NNE 5.8 mph - N/A   Overcast
6:52 PM 13.1 °F 4.0 °F 4.6 °F 69% 30.33 in 10.0 mi NNE 5.8 mph - N/A   Overcast
7:12 PM 13.1 °F 4.0 °F 5.0 °F 70% 30.33 in 10.0 mi North 5.8 mph - N/A   Overcast
7:32 PM 13.1 °F 4.0 °F 5.9 °F 73% 30.33 in 10.0 mi NE 5.8 mph - N/A Snow Light Snow
7:52 PM 12.9 °F 2.6 °F 5.9 °F 74% 30.32 in 10.0 mi North 6.9 mph - N/A Snow Light Snow
8:12 PM 12.7 °F 3.6 °F 6.3 °F 75% 30.33 in 10.0 mi NNE 5.8 mph - N/A   Overcast
8:32 PM 12.6 °F 3.4 °F 6.3 °F 76% 30.33 in 10.0 mi NNE 5.8 mph - N/A   Overcast
8:52 PM 12.2 °F 2.9 °F 6.3 °F 77% 30.32 in 10.0 mi NNE 5.8 mph - N/A   Overcast
9:12 PM 12.0 °F 1.5 °F 6.3 °F 78% 30.32 in 10.0 mi NNE 6.9 mph - N/A   Overcast
9:32 PM 11.8 °F 2.5 °F 6.3 °F 78% 30.32 in 10.0 mi NNE 5.8 mph - N/A   Overcast
9:52 PM 11.7 °F 2.3 °F 6.1 °F 78% 30.32 in 10.0 mi NNE 5.8 mph - N/A Snow Light Snow
10:12 PM 11.7 °F 3.7 °F 6.3 °F 79% 30.32 in 10.0 mi NNE 4.6 mph - N/A   Overcast
10:32 PM 11.3 °F 3.3 °F 6.6 °F 81% 30.32 in 7.0 mi North 4.6 mph - N/A Snow Light Snow
10:52 PM 11.3 °F 1.9 °F 6.8 °F 82% 30.32 in 5.0 mi NNE 5.8 mph - N/A Snow Light Snow
11:12 PM 11.3 °F 1.9 °F 6.8 °F 82% 30.32 in 5.0 mi NE 5.8 mph - N/A Snow Light Snow
11:32 PM 11.3 °F 1.9 °F 6.8 °F 82% 30.31 in 7.0 mi NNE 5.8 mph - N/A Snow Light Snow
11:52 PM 11.3 °F 0.7 °F 6.4 °F 81% 30.31 in 10.0 mi NE 6.9 mph - N/A Snow Light Snow